Orbital Elements at Epoch 2459000.5 (2020-May-31.0) TDB
Reference: JPL 22 (heliocentric ecliptic J2000)
Element | Value | Uncertainty (1-sigma) | Units |
e | .09369691610433381 | 3.1638e-08 | |
a | 2.411088129423251 | 9.7391e-09 | au |
q | 2.185176607240526 | 7.5025e-08 | au |
i | 6.109076527000339 | 4.1711e-06 | deg |
node | 331.4070687283811 | 3.8265e-05 | deg |
peri | 120.6495295276624 | 4.8083e-05 | deg |
M | 120.111095487953 | 2.9046e-05 | deg |
tp | 2458544.254408125707 (2019-Mar-01.75440813) | 0.00010938 | TDB |
period | 1367.470777012599 3.74 | 8.2855e-06 2.268e-08 | d yr |
n | .2632597391122773 | 1.5951e-09 | deg/d |
Q | 2.636999651605977 | 1.0652e-08 | au |
|
| | Orbit Determination Parameters
Additional Information
|